| time (UTC) | temp F | wind direction | speed MPH | gust MPH | rain 1hr in | rain 24hr in | rain mn in | humidity % | barometer mb |
| 20260901204517 | 100 | 72 | 2.0 | 6.0 | 0.00 | 0.00 | 0.00 | 27 | 1015.4 |
| 20260901203018 | 100 | 84 | 2.0 | 4.0 | 0.00 | 0.00 | 0.00 | 27 | 1015.7 |
| 20260901201516 | 98 | 285 | 1.0 | 6.0 | 0.00 | 0.00 | 0.00 | 29 | 1015.9 |
| 20260901200010 | 99 | 205 | 1.0 | 4.0 | 0.00 | 0.00 | 0.00 | 28 | 1016.2 |
| 20260901194517 | 99 | 169 | 2.0 | 9.0 | 0.00 | 0.00 | 0.00 | 28 | 1016.4 |
| 20260901193016 | 98 | 124 | 4.0 | 9.0 | 0.00 | 0.00 | 0.00 | 28 | 1016.4 |
| 20260901191504 | 97 | 72 | 3.0 | 11.0 | 0.00 | 0.00 | 0.00 | 29 | 1016.6 |
| 20260901190013 | 98 | 153 | 2.0 | 6.0 | 0.00 | 0.00 | 0.00 | 29 | 1016.8 |
| 20260901184514 | 99 | 79 | 1.0 | 6.0 | 0.00 | 0.00 | 0.00 | 29 | 1017.0 |
| 20260901183020 | 98 | 150 | 2.0 | 5.0 | 0.00 | 0.00 | 0.00 | 28 | 1017.2 |
| 20260901181525 | 98 | 120 | 2.0 | 6.0 | 0.00 | 0.00 | 0.00 | 29 | 1017.4 |
| 20260901180031 | 96 | 108 | 3.0 | 7.0 | 0.00 | 0.00 | 0.00 | 31 | 1017.6 |
| 20260901174509 | 97 | 30 | 2.0 | 5.0 | 0.00 | 0.00 | 0.00 | 33 | 1017.8 |
| 20260901173013 | 97 | 181 | 2.0 | 4.0 | 0.00 | 0.00 | 0.00 | 33 | 1018.1 |
| 20260901171526 | 96 | 170 | 1.0 | 4.0 | 0.00 | 0.00 | 0.00 | 37 | 1018.1 |
| 20260901170026 | 95 | 170 | 2.0 | 6.0 | 0.00 | 0.00 | 0.00 | 37 | 1018.4 |
| 20260901164527 | 94 | 185 | 2.0 | 6.0 | 0.00 | 0.00 | 0.00 | 40 | 1018.4 |
| 20260901163011 | 93 | 143 | 2.0 | 6.0 | 0.00 | 0.00 | 0.00 | 40 | 1018.4 |
| 20260901161519 | 93 | 141 | 3.0 | 7.0 | 0.00 | 0.00 | 0.00 | 42 | 1018.6 |
| 20260901160021 | 92 | 153 | 2.0 | 7.0 | 0.00 | 0.00 | 0.00 | 44 | 1018.5 |
| 20260901154534 | 90 | 263 | 1.0 | 6.0 | 0.00 | 0.00 | 0.00 | 46 | 1018.5 |
| 20260901153037 | 90 | 115 | 2.0 | 7.0 | 0.00 | 0.00 | 0.00 | 46 | 1018.4 |
| 20260901151514 | 88 | 243 | 2.0 | 8.0 | 0.00 | 0.00 | 0.00 | 49 | 1018.5 |
| 20260901150015 | 88 | 219 | 1.0 | 3.0 | 0.00 | 0.00 | 0.00 | 50 | 1018.5 |
| 20260901144522 | 86 | 243 | 1.0 | 4.0 | 0.00 | 0.00 | 0.00 | 52 | 1018.6 |
| 20260901143028 | 85 | 157 | 2.0 | 4.0 | 0.00 | 0.00 | 0.00 | 53 | 1018.6 |
| 20260901141530 | 84 | 249 | 1.0 | 4.0 | 0.00 | 0.00 | 0.00 | 55 | 1018.7 |
| 20260901140018 | 83 | 165 | 0.0 | 4.0 | 0.00 | 0.00 | 0.00 | 57 | 1018.8 |
| 20260901134520 | 82 | 150 | 1.0 | 4.0 | 0.00 | 0.00 | 0.00 | 59 | 1018.6 |
| 20260901133024 | 80 | 203 | 2.0 | 4.0 | 0.00 | 0.00 | 0.00 | 61 | 1018.8 |
| 20260901131528 | 79 | 162 | 2.0 | 3.0 | 0.00 | 0.00 | 0.00 | 63 | 1018.6 |
| 20260901130031 | 79 | 162 | 0.0 | 3.0 | 0.00 | 0.00 | 0.00 | 64 | 1018.4 |
| 20260901124533 | 78 | 146 | 1.0 | 3.0 | 0.00 | 0.00 | 0.00 | 65 | 1018.6 |
| 20260901123020 | 77 | 154 | 0.0 | 2.0 | 0.00 | 0.00 | 0.00 | 66 | 1018.3 |
| 20260901121537 | 77 | 168 | 0.0 | 2.0 | 0.00 | 0.00 | 0.00 | 66 | 1018.0 |
| 20260901120030 | 77 | 109 | 0.0 | 2.0 | 0.00 | 0.00 | 0.00 | 64 | 1018.0 |
| 20260901114530 | 78 | 143 | 0.0 | 2.0 | 0.00 | 0.00 | 0.00 | 64 | 1017.9 |
| 20260901113033 | 78 | 161 | 1.0 | 2.0 | 0.00 | 0.00 | 0.00 | 63 | 1017.7 |
| 20260901111524 | 79 | 149 | 1.0 | 3.0 | 0.00 | 0.00 | 0.00 | 63 | 1017.6 |
| 20260901110025 | 79 | 189 | 1.0 | 5.0 | 0.00 | 0.00 | 0.00 | 61 | 1017.6 |
| 20260901104538 | 79 | 163 | 1.0 | 6.0 | 0.00 | 0.00 | 0.00 | 61 | 1017.5 |
| 20260901103039 | 79 | 210 | 1.0 | 5.0 | 0.00 | 0.00 | 0.00 | 60 | 1017.4 |
| 20260901101532 | 80 | 9 | 1.0 | 3.0 | 0.00 | 0.00 | 0.00 | 60 | 1017.3 |
| 20260901100046 | 80 | 136 | 1.0 | 3.0 | 0.00 | 0.00 | 0.00 | 59 | 1017.3 |
| 20260901094506 | 80 | 226 | 1.0 | 2.0 | 0.00 | 0.00 | 0.00 | 58 | 1017.2 |
| 20260901093032 | 81 | 168 | 0.0 | 2.0 | 0.00 | 0.00 | 0.00 | 56 | 1017.2 |
| 20260901091535 | 81 | 158 | 0.0 | 4.0 | 0.00 | 0.00 | 0.00 | 55 | 1017.1 |
| 20260901090032 | 81 | 174 | 1.0 | 4.0 | 0.00 | 0.00 | 0.00 | 54 | 1017.1 |
| 20260901084525 | 81 | 149 | 1.0 | 6.0 | 0.00 | 0.00 | 0.00 | 54 | 1017.2 |
| 20260901083007 | 80 | 141 | 0.0 | 1.0 | 0.00 | 0.00 | 0.00 | 55 | 1017.1 |
| 20260901081511 | 80 | 91 | 1.0 | 2.0 | 0.00 | 0.00 | 0.00 | 53 | 1017.2 |
| 20260901080018 | 81 | 90 | 1.0 | 3.0 | 0.00 | 0.00 | 0.00 | 52 | 1017.1 |
| 20260901074523 | 82 | 113 | 0.0 | 3.0 | 0.00 | 0.00 | 0.00 | 51 | 1017.0 |
| 20260901073030 | 83 | 179 | 0.0 | 4.0 | 0.00 | 0.00 | 0.00 | 49 | 1016.9 |
| 20260901071512 | 83 | 110 | 2.0 | 5.0 | 0.00 | 0.00 | 0.00 | 49 | 1016.8 |
| 20260901070010 | 84 | 172 | 1.0 | 3.0 | 0.00 | 0.00 | 0.00 | 48 | 1017.1 |
| 20260901064517 | 84 | 170 | 1.0 | 3.0 | 0.00 | 0.00 | 0.00 | 48 | 1017.1 |
| 20260901063032 | 84 | 162 | 1.0 | 5.0 | 0.00 | 0.00 | 0.00 | 48 | 1017.0 |
| 20260901061532 | 84 | 164 | 1.0 | 4.0 | 0.00 | 0.00 | 0.00 | 47 | 1017.0 |
| 20260901060037 | 84 | 162 | 1.0 | 4.0 | 0.00 | 0.00 | 0.00 | 48 | 1016.8 |
| 20260901054523 | 84 | 195 | 1.0 | 4.0 | 0.00 | 0.00 | 0.00 | 47 | 1016.7 |
| 20260901053018 | 84 | 205 | 1.0 | 4.0 | 0.00 | 0.00 | 0.00 | 47 | 1016.7 |
| 20260901051527 | 85 | 133 | 1.0 | 5.0 | 0.00 | 0.00 | 0.00 | 45 | 1016.6 |
| 20260901050031 | 84 | 151 | 1.0 | 4.0 | 0.00 | 0.00 | 0.00 | 45 | 1016.6 |
| 20260901044529 | 85 | 124 | 1.0 | 6.0 | 0.00 | 0.00 | 0.00 | 45 | 1016.6 |
| 20260901043035 | 85 | 169 | 1.0 | 5.0 | 0.00 | 0.00 | 0.00 | 45 | 1016.6 |
| 20260901041522 | 85 | 112 | 2.0 | 4.0 | 0.00 | 0.00 | 0.00 | 44 | 1016.4 |
| 20260901040028 | 86 | 129 | 1.0 | 4.0 | 0.00 | 0.00 | 0.00 | 44 | 1016.2 |
| 20260901034530 | 86 | 122 | 1.0 | 6.0 | 0.00 | 0.00 | 0.00 | 41 | 1016.3 |
| 20260901033039 | 86 | 121 | 1.0 | 5.0 | 0.00 | 0.00 | 0.00 | 40 | 1016.0 |
| 20260901031521 | 87 | 156 | 1.0 | 3.0 | 0.00 | 0.00 | 0.00 | 40 | 1015.9 |
| 20260901030024 | 87 | 90 | 2.0 | 5.0 | 0.00 | 0.00 | 0.00 | 38 | 1015.7 |
| 20260901024530 | 88 | 235 | 0.0 | 4.0 | 0.00 | 0.00 | 0.00 | 36 | 1015.4 |
| 20260901023034 | 88 | 146 | 0.0 | 5.0 | 0.00 | 0.00 | 0.00 | 36 | 1015.0 |
| 20260901021545 | 89 | 135 | 1.0 | 4.0 | 0.00 | 0.00 | 0.00 | 35 | 1014.8 |
| 20260901020018 | 90 | 95 | 1.0 | 6.0 | 0.00 | 0.00 | 0.00 | 34 | 1014.7 |
| 20260901014532 | 90 | 129 | 2.0 | 5.0 | 0.00 | 0.00 | 0.00 | 33 | 1014.7 |
| 20260901013034 | 91 | 100 | 2.0 | 5.0 | 0.00 | 0.00 | 0.00 | 32 | 1014.5 |
| 20260901011532 | 92 | 129 | 2.0 | 4.0 | 0.00 | 0.00 | 0.00 | 32 | 1014.4 |
| 20260901010037 | 92 | 122 | 0.0 | 6.0 | 0.00 | 0.00 | 0.00 | 31 | 1014.4 |
| 20260901004527 | 93 | 94 | 2.0 | 10.0 | 0.00 | 0.00 | 0.00 | 30 | 1014.3 |
| 20260901003029 | 94 | 108 | 6.0 | 9.0 | 0.00 | 0.00 | 0.00 | 30 | 1014.3 |
| 20260901001530 | 95 | 49 | 2.0 | 6.0 | 0.00 | 0.00 | 0.00 | 30 | 1014.2 |
| 20260901000011 | 95 | 99 | 2.0 | 6.0 | 0.00 | 0.00 | 0.00 | 30 | 1014.1 |
| 20260831234518 | 96 | 49 | 4.0 | 10.0 | 0.00 | 0.00 | 0.00 | 29 | 1014.1 |
| 20260831233024 | 95 | 61 | 2.0 | 6.0 | 0.00 | 0.00 | 0.00 | 30 | 1014.1 |
| 20260831231530 | 96 | 121 | 3.0 | 6.0 | 0.00 | 0.00 | 0.00 | 29 | 1014.1 |
| 20260831230028 | 95 | 134 | 1.0 | 5.0 | 0.00 | 0.00 | 0.00 | 29 | 1014.1 |
| 20260831224534 | 96 | 219 | 1.0 | 5.0 | 0.00 | 0.00 | 0.00 | 30 | 1014.3 |
| 20260831223028 | 95 | 89 | 1.0 | 4.0 | 0.00 | 0.00 | 0.00 | 29 | 1014.3 |
| 20260831221534 | 97 | 217 | 1.0 | 5.0 | 0.00 | 0.00 | 0.00 | 28 | 1014.5 |
| 20260831220032 | 97 | 90 | 2.0 | 6.0 | 0.00 | 0.00 | 0.00 | 27 | 1014.7 |
| 20260831214532 | 98 | 100 | 2.0 | 5.0 | 0.00 | 0.00 | 0.00 | 28 | 1014.8 |
| 20260831213040 | 98 | 226 | 2.0 | 10.0 | 0.00 | 0.00 | 0.00 | 27 | 1014.9 |
| 20260831211521 | 96 | 106 | 1.0 | 7.0 | 0.00 | 0.00 | 0.00 | 31 | 1015.1 |
| 20260831210032 | 99 | 120 | 2.0 | 5.0 | 0.00 | 0.00 | 0.00 | 28 | 1015.3 |